User: anonymous   Login
Location: Allentsteig
(48.6833°N, 15.3167°E)
Time: 03:28:47
(UTC+00:00)
Language:

FREGAT/IRIS - Orbit

View from above orbital plane
View from above orbital plane
View from above satellite
View from above satellite

Ground track
Ground track

The orbit data is extracted from the following two-line orbital elements,

1 35867U 09049C   20338.62776442  .00088434  48323-5  26932-3 0  9992
2 35867  96.9031  18.9049 0003718  79.5034  19.8007 15.92077342632878
Epoch (UTC): 03 December 2020 15:03:58
Eccentricity: 0.0003718
inclination: 96.9031°
perigee height: 294 km
apogee height: 299 km
right ascension of ascending node: 18.9049°
argument of perigee: 79.5034°
revolutions per day: 15.92077342
mean anomaly at epoch: 19.8007°
orbit number at epoch: 63287

The dashed part of the orbit path shows where the satellite is in the earth's shadow,  

DLR